owner,sensor,date,latitude,longitude,vertical_datum,wind_speed,wind_to_direction,wind_speed_of_gust,qcFlag 
ADCP,ioos:station:wmo:42364:1,2016-11-01T00:30:00Z,29.0600,-88.0900,122.0,3.3,53.0,99.0,'11111222,11111222,11144222' 
ADCP,ioos:station:wmo:42364:1,2016-11-01T01:30:00Z,29.0600,-88.0900,122.0,3.8,49.0,99.0,'11111222,11111222,11144222' 
ADCP,ioos:station:wmo:42364:1,2016-11-01T02:30:00Z,29.0600,-88.0900,122.0,4.1,47.0,99.0,'11111222,11111222,11144222' 
ADCP,ioos:station:wmo:42364:1,2016-11-01T03:30:00Z,29.0600,-88.0900,122.0,4.5,69.0,99.0,'11111222,11111222,11144222' 
ADCP,ioos:station:wmo:42364:1,2016-11-01T04:30:00Z,29.0600,-88.0900,122.0,4.8,96.0,99.0,'11111222,11111222,11144222' 
ADCP,ioos:station:wmo:42364:1,2016-11-01T05:30:00Z,29.0600,-88.0900,122.0,5.7,116.0,99.0,'11111222,11111222,11144222' 
ADCP,ioos:station:wmo:42364:1,2016-11-01T07:30:00Z,29.0600,-88.0900,122.0,6.2,121.0,99.0,'11111222,11111222,11144222' 
ADCP,ioos:station:wmo:42364:1,2016-11-01T08:30:00Z,29.0600,-88.0900,122.0,6.6,115.0,99.0,'11111222,11111222,11144222' 
ADCP,ioos:station:wmo:42364:1,2016-11-01T09:30:00Z,29.0600,-88.0900,122.0,7.0,123.0,99.0,'11111222,11111222,11144222' 
ADCP,ioos:station:wmo:42364:1,2016-11-01T10:30:00Z,29.0600,-88.0900,122.0,7.5,119.0,99.0,'11111222,11111222,11144222' 
ADCP,ioos:station:wmo:42364:1,2016-11-01T11:30:00Z,29.0600,-88.0900,122.0,7.3,115.0,99.0,'11111222,11111222,11144222' 
ADCP,ioos:station:wmo:42364:1,2016-11-01T12:30:00Z,29.0600,-88.0900,122.0,7.4,110.0,99.0,'11111222,11111222,11144222' 
ADCP,ioos:station:wmo:42364:1,2016-11-01T13:30:00Z,29.0600,-88.0900,122.0,7.4,113.0,99.0,'11111222,11111222,11144222' 
ADCP,ioos:station:wmo:42364:1,2016-11-01T14:30:00Z,29.0600,-88.0900,122.0,7.2,108.0,99.0,'11111222,11111222,11144222' 
ADCP,ioos:station:wmo:42364:1,2016-11-01T15:30:00Z,29.0600,-88.0900,122.0,9.0,94.0,99.0,'11111222,11111222,11144222' 
ADCP,ioos:station:wmo:42364:1,2016-11-01T16:30:00Z,29.0600,-88.0900,122.0,9.0,97.0,99.0,'11111222,11111222,11144222' 
ADCP,ioos:station:wmo:42364:1,2016-11-01T17:30:00Z,29.0600,-88.0900,122.0,9.2,92.0,99.0,'11111222,11111222,11144222' 
ADCP,ioos:station:wmo:42364:1,2016-11-01T18:30:00Z,29.0600,-88.0900,122.0,9.5,91.0,99.0,'11111222,11111222,11144222' 
ADCP,ioos:station:wmo:42364:1,2016-11-01T19:30:00Z,29.0600,-88.0900,122.0,9.3,93.0,99.0,'11111222,11111222,11144222' 
ADCP,ioos:station:wmo:42364:1,2016-11-01T20:30:00Z,29.0600,-88.0900,122.0,9.2,100.0,99.0,'11111222,11111222,11144222' 
ADCP,ioos:station:wmo:42364:1,2016-11-01T21:30:00Z,29.0600,-88.0900,122.0,9.9,99.0,99.0,'11111222,11111222,11144222' 
ADCP,ioos:station:wmo:42364:1,2016-11-01T22:30:00Z,29.0600,-88.0900,122.0,9.8,100.0,99.0,'11111222,11111222,11144222' 
ADCP,ioos:station:wmo:42364:1,2016-11-01T23:30:00Z,29.0600,-88.0900,122.0,12.1,140.0,99.0,'11111222,11111222,11144222' 
ADCP,ioos:station:wmo:42364:1,2016-11-02T00:30:00Z,29.0600,-88.0900,122.0,9.2,95.0,99.0,'11111222,11111222,11144222' 
ADCP,ioos:station:wmo:42364:1,2016-11-02T01:30:00Z,29.0600,-88.0900,122.0,9.5,100.0,99.0,'11111222,11111222,11144222' 
ADCP,ioos:station:wmo:42364:1,2016-11-02T02:30:00Z,29.0600,-88.0900,122.0,9.4,100.0,99.0,'11111222,11111222,11144222' 
ADCP,ioos:station:wmo:42364:1,2016-11-02T03:30:00Z,29.0600,-88.0900,122.0,9.1,109.0,99.0,'11111222,11111222,11144222' 
ADCP,ioos:station:wmo:42364:1,2016-11-02T04:30:00Z,29.0600,-88.0900,122.0,8.8,114.0,99.0,'11111222,11111222,11144222' 
ADCP,ioos:station:wmo:42364:1,2016-11-02T05:30:00Z,29.0600,-88.0900,122.0,8.7,116.0,99.0,'11111222,11111222,11144222' 
ADCP,ioos:station:wmo:42364:1,2016-11-02T06:30:00Z,29.0600,-88.0900,122.0,8.7,125.0,99.0,'11111222,11111222,11144222' 
ADCP,ioos:station:wmo:42364:1,2016-11-02T07:30:00Z,29.0600,-88.0900,122.0,9.5,131.0,99.0,'11111222,11111222,11144222' 
ADCP,ioos:station:wmo:42364:1,2016-11-02T08:30:00Z,29.0600,-88.0900,122.0,8.9,126.0,99.0,'11111222,11111222,11144222' 
ADCP,ioos:station:wmo:42364:1,2016-11-02T09:30:00Z,29.0600,-88.0900,122.0,8.1,121.0,99.0,'11111222,11111222,11144222' 
ADCP,ioos:station:wmo:42364:1,2016-11-02T10:30:00Z,29.0600,-88.0900,122.0,7.8,118.0,99.0,'11111222,11111222,11144222' 
ADCP,ioos:station:wmo:42364:1,2016-11-02T11:30:00Z,29.0600,-88.0900,122.0,7.6,107.0,99.0,'11111222,11111222,11144222' 
ADCP,ioos:station:wmo:42364:1,2016-11-02T12:30:00Z,29.0600,-88.0900,122.0,9.4,98.0,99.0,'11111222,11111222,11144222' 
ADCP,ioos:station:wmo:42364:1,2016-11-02T13:30:00Z,29.0600,-88.0900,122.0,8.7,105.0,99.0,'11111222,11111222,11144222' 
ADCP,ioos:station:wmo:42364:1,2016-11-02T14:30:00Z,29.0600,-88.0900,122.0,8.2,110.0,99.0,'11111222,11111222,11144222' 
ADCP,ioos:station:wmo:42364:1,2016-11-02T15:30:00Z,29.0600,-88.0900,122.0,9.1,99.0,99.0,'11111222,11111222,11144222' 
ADCP,ioos:station:wmo:42364:1,2016-11-02T16:30:00Z,29.0600,-88.0900,122.0,8.6,105.0,99.0,'11111222,11111222,11144222' 
ADCP,ioos:station:wmo:42364:1,2016-11-02T17:30:00Z,29.0600,-88.0900,122.0,7.9,105.0,99.0,'11111222,11111222,11144222' 
ADCP,ioos:station:wmo:42364:1,2016-11-02T18:30:00Z,29.0600,-88.0900,122.0,7.3,99.0,99.0,'11111222,11111222,11144222' 
ADCP,ioos:station:wmo:42364:1,2016-11-02T19:30:00Z,29.0600,-88.0900,122.0,6.4,96.0,99.0,'11111222,11111222,11144222' 
ADCP,ioos:station:wmo:42364:1,2016-11-02T20:30:00Z,29.0600,-88.0900,122.0,6.7,96.0,99.0,'11111222,11111222,11144222' 
ADCP,ioos:station:wmo:42364:1,2016-11-02T21:30:00Z,29.0600,-88.0900,122.0,6.7,95.0,99.0,'11111222,11111222,11144222' 
ADCP,ioos:station:wmo:42364:1,2016-11-02T22:30:00Z,29.0600,-88.0900,122.0,6.4,98.0,99.0,'11111222,11111222,11144222' 
ADCP,ioos:station:wmo:42364:1,2016-11-02T23:30:00Z,29.0600,-88.0900,122.0,6.5,86.0,99.0,'11111222,11111222,11144222' 
ADCP,ioos:station:wmo:42364:1,2016-11-03T00:30:00Z,29.0600,-88.0900,122.0,6.8,82.0,99.0,'11111222,11111222,11144222' 
ADCP,ioos:station:wmo:42364:1,2016-11-03T01:30:00Z,29.0600,-88.0900,122.0,7.0,87.0,99.0,'11111222,11111222,11144222' 
ADCP,ioos:station:wmo:42364:1,2016-11-03T02:30:00Z,29.0600,-88.0900,122.0,6.6,92.0,99.0,'11111222,11111222,11144222' 
ADCP,ioos:station:wmo:42364:1,2016-11-03T03:30:00Z,29.0600,-88.0900,122.0,6.5,98.0,99.0,'11111222,11111222,11144222' 
ADCP,ioos:station:wmo:42364:1,2016-11-03T04:30:00Z,29.0600,-88.0900,122.0,7.4,97.0,99.0,'11111222,11111222,11144222' 
ADCP,ioos:station:wmo:42364:1,2016-11-03T05:30:00Z,29.0600,-88.0900,122.0,7.1,93.0,99.0,'11111222,11111222,11144222' 
ADCP,ioos:station:wmo:42364:1,2016-11-03T06:30:00Z,29.0600,-88.0900,122.0,6.4,95.0,99.0,'11111222,11111222,11144222' 
ADCP,ioos:station:wmo:42364:1,2016-11-03T07:30:00Z,29.0600,-88.0900,122.0,6.4,87.0,99.0,'11111222,11111222,11144222' 
ADCP,ioos:station:wmo:42364:1,2016-11-03T08:30:00Z,29.0600,-88.0900,122.0,6.1,94.0,99.0,'11111222,11111222,11144222' 
ADCP,ioos:station:wmo:42364:1,2016-11-03T09:30:00Z,29.0600,-88.0900,122.0,5.1,96.0,99.0,'11111222,11111222,11144222' 
ADCP,ioos:station:wmo:42364:1,2016-11-03T11:30:00Z,29.0600,-88.0900,122.0,5.9,88.0,99.0,'11111222,11111222,11144222' 
ADCP,ioos:station:wmo:42364:1,2016-11-03T12:30:00Z,29.0600,-88.0900,122.0,6.0,98.0,99.0,'11111222,11111222,11144222' 
ADCP,ioos:station:wmo:42364:1,2016-11-03T13:30:00Z,29.0600,-88.0900,122.0,6.8,93.0,99.0,'11111222,11111222,11144222' 
ADCP,ioos:station:wmo:42364:1,2016-11-03T14:30:00Z,29.0600,-88.0900,122.0,7.3,96.0,99.0,'11111222,11111222,11144222' 
ADCP,ioos:station:wmo:42364:1,2016-11-03T15:30:00Z,29.0600,-88.0900,122.0,7.2,101.0,99.0,'11111222,11111222,11144222' 
ADCP,ioos:station:wmo:42364:1,2016-11-03T17:30:00Z,29.0600,-88.0900,122.0,5.8,113.0,99.0,'11111222,11111222,11144222' 
ADCP,ioos:station:wmo:42364:1,2016-11-03T18:30:00Z,29.0600,-88.0900,122.0,5.2,102.0,99.0,'11111222,11111222,11144222' 
ADCP,ioos:station:wmo:42364:1,2016-11-03T19:30:00Z,29.0600,-88.0900,122.0,5.1,97.0,99.0,'11111222,11111222,11144222' 
ADCP,ioos:station:wmo:42364:1,2016-11-03T20:30:00Z,29.0600,-88.0900,122.0,4.3,85.0,99.0,'11111222,11111222,11144222' 
ADCP,ioos:station:wmo:42364:1,2016-11-03T21:30:00Z,29.0600,-88.0900,122.0,4.2,81.0,99.0,'11111222,11111222,11144222' 
ADCP,ioos:station:wmo:42364:1,2016-11-03T22:30:00Z,29.0600,-88.0900,122.0,3.7,81.0,99.0,'11111222,11111222,11144222' 
ADCP,ioos:station:wmo:42364:1,2016-11-03T23:30:00Z,29.0600,-88.0900,122.0,3.7,70.0,99.0,'11111222,11111222,11144222' 
ADCP,ioos:station:wmo:42364:1,2016-11-04T00:30:00Z,29.0600,-88.0900,122.0,3.2,71.0,99.0,'11111222,11111222,11144222' 
ADCP,ioos:station:wmo:42364:1,2016-11-04T01:30:00Z,29.0600,-88.0900,122.0,3.0,59.0,99.0,'11111222,11111222,11144222' 
ADCP,ioos:station:wmo:42364:1,2016-11-04T02:30:00Z,29.0600,-88.0900,122.0,2.4,41.0,99.0,'11111222,11111222,11144222' 
ADCP,ioos:station:wmo:42364:1,2016-11-04T03:30:00Z,29.0600,-88.0900,122.0,2.3,38.0,99.0,'11111222,11111222,11144222' 
ADCP,ioos:station:wmo:42364:1,2016-11-04T04:30:00Z,29.0600,-88.0900,122.0,1.0,25.0,99.0,'11111222,11111222,11144222' 
ADCP,ioos:station:wmo:42364:1,2016-11-04T05:30:00Z,29.0600,-88.0900,122.0,0.1,3.0,99.0,'11111222,11111222,11144222' 
ADCP,ioos:station:wmo:42364:1,2016-11-04T06:30:00Z,29.0600,-88.0900,122.0,0.0,0.0,99.0,'11111222,11111222,11144222' 
ADCP,ioos:station:wmo:42364:1,2016-11-04T07:30:00Z,29.0600,-88.0900,122.0,0.2,1.0,99.0,'11111222,11111222,11144222' 
ADCP,ioos:station:wmo:42364:1,2016-11-04T08:30:00Z,29.0600,-88.0900,122.0,0.3,360.0,99.0,'11111222,11144222,11144222' 
ADCP,ioos:station:wmo:42364:1,2016-11-04T09:30:00Z,29.0600,-88.0900,122.0,0.1,360.0,99.0,'11111222,11144222,11144222' 
ADCP,ioos:station:wmo:42364:1,2016-11-04T10:30:00Z,29.0600,-88.0900,122.0,0.0,0.0,99.0,'11111222,11111222,11144222' 
ADCP,ioos:station:wmo:42364:1,2016-11-04T11:30:00Z,29.0600,-88.0900,122.0,0.1,360.0,99.0,'11111222,11144222,11144222' 
ADCP,ioos:station:wmo:42364:1,2016-11-04T12:30:00Z,29.0600,-88.0900,122.0,0.0,0.0,99.0,'11111222,11111222,11144222' 
ADCP,ioos:station:wmo:42364:1,2016-11-04T13:30:00Z,29.0600,-88.0900,122.0,0.3,357.0,99.0,'11111222,11111222,11144222' 
ADCP,ioos:station:wmo:42364:1,2016-11-04T14:30:00Z,29.0600,-88.0900,122.0,0.5,354.0,99.0,'11111222,11111222,11144222' 
ADCP,ioos:station:wmo:42364:1,2016-11-04T15:30:00Z,29.0600,-88.0900,122.0,0.6,356.0,99.0,'11111222,11111222,11144222' 
ADCP,ioos:station:wmo:42364:1,2016-11-04T16:30:00Z,29.0600,-88.0900,122.0,0.6,353.0,99.0,'11111222,11111222,11144222' 
ADCP,ioos:station:wmo:42364:1,2016-11-04T17:30:00Z,29.0600,-88.0900,122.0,1.8,352.0,99.0,'11111222,11111222,11144222' 
ADCP,ioos:station:wmo:42364:1,2016-11-04T18:30:00Z,29.0600,-88.0900,122.0,1.5,356.0,99.0,'11111222,11111222,11144222' 
ADCP,ioos:station:wmo:42364:1,2016-11-04T19:30:00Z,29.0600,-88.0900,122.0,0.1,359.0,99.0,'11111222,11111222,11144222' 
ADCP,ioos:station:wmo:42364:1,2016-11-04T20:30:00Z,29.0600,-88.0900,122.0,0.3,358.0,99.0,'11111222,11111222,11144222' 
ADCP,ioos:station:wmo:42364:1,2016-11-04T21:30:00Z,29.0600,-88.0900,122.0,0.0,0.0,99.0,'11111222,11111222,11144222' 
ADCP,ioos:station:wmo:42364:1,2016-11-04T22:30:00Z,29.0600,-88.0900,122.0,0.0,0.0,99.0,'11111222,11111222,11144222' 
ADCP,ioos:station:wmo:42364:1,2016-11-04T23:30:00Z,29.0600,-88.0900,122.0,0.0,0.0,99.0,'11111222,11111222,11144222' 
ADCP,ioos:station:wmo:42364:1,2016-11-05T00:30:00Z,29.0600,-88.0900,122.0,0.0,0.0,99.0,'11111222,11111222,11144222' 
ADCP,ioos:station:wmo:42364:1,2016-11-05T01:30:00Z,29.0600,-88.0900,122.0,0.0,0.0,99.0,'11111222,11111222,11144222' 
ADCP,ioos:station:wmo:42364:1,2016-11-05T02:30:00Z,29.0600,-88.0900,122.0,0.0,0.0,99.0,'11111222,11111222,11144222' 
ADCP,ioos:station:wmo:42364:1,2016-11-05T03:30:00Z,29.0600,-88.0900,122.0,0.0,0.0,99.0,'11111222,11111222,11144222' 
ADCP,ioos:station:wmo:42364:1,2016-11-05T04:30:00Z,29.0600,-88.0900,122.0,3.2,1.0,99.0,'11111222,11111222,11144222' 
ADCP,ioos:station:wmo:42364:1,2016-11-05T05:30:00Z,29.0600,-88.0900,122.0,8.4,30.0,99.0,'11111222,11111222,11144222' 
ADCP,ioos:station:wmo:42364:1,2016-11-05T06:30:00Z,29.0600,-88.0900,122.0,9.2,39.0,99.0,'11111222,11111222,11144222' 
ADCP,ioos:station:wmo:42364:1,2016-11-05T07:30:00Z,29.0600,-88.0900,122.0,8.9,41.0,99.0,'11111222,11111222,11144222' 
ADCP,ioos:station:wmo:42364:1,2016-11-05T08:30:00Z,29.0600,-88.0900,122.0,8.0,41.0,99.0,'11111222,11111222,11144222' 
ADCP,ioos:station:wmo:42364:1,2016-11-05T09:30:00Z,29.0600,-88.0900,122.0,8.2,43.0,99.0,'11111222,11111222,11144222' 
ADCP,ioos:station:wmo:42364:1,2016-11-05T10:30:00Z,29.0600,-88.0900,122.0,8.6,43.0,99.0,'11111222,11111222,11144222' 
ADCP,ioos:station:wmo:42364:1,2016-11-05T11:30:00Z,29.0600,-88.0900,122.0,8.2,50.0,99.0,'11111222,11111222,11144222' 
ADCP,ioos:station:wmo:42364:1,2016-11-05T12:30:00Z,29.0600,-88.0900,122.0,7.6,66.0,99.0,'11111222,11111222,11144222' 
ADCP,ioos:station:wmo:42364:1,2016-11-05T13:30:00Z,29.0600,-88.0900,122.0,6.7,75.0,99.0,'11111222,11111222,11144222' 
ADCP,ioos:station:wmo:42364:1,2016-11-05T14:30:00Z,29.0600,-88.0900,122.0,7.5,83.0,99.0,'11111222,11111222,11144222' 
ADCP,ioos:station:wmo:42364:1,2016-11-05T15:30:00Z,29.0600,-88.0900,122.0,7.6,89.0,99.0,'11111222,11111222,11144222' 
ADCP,ioos:station:wmo:42364:1,2016-11-05T16:30:00Z,29.0600,-88.0900,122.0,7.3,86.0,99.0,'11111222,11111222,11144222' 
ADCP,ioos:station:wmo:42364:1,2016-11-05T17:30:00Z,29.0600,-88.0900,122.0,8.7,82.0,99.0,'11111222,11111222,11144222' 
ADCP,ioos:station:wmo:42364:1,2016-11-05T18:30:00Z,29.0600,-88.0900,122.0,9.8,81.0,99.0,'11111222,11111222,11144222' 
ADCP,ioos:station:wmo:42364:1,2016-11-05T19:30:00Z,29.0600,-88.0900,122.0,10.4,80.0,99.0,'11111222,11111222,11144222' 
ADCP,ioos:station:wmo:42364:1,2016-11-05T20:30:00Z,29.0600,-88.0900,122.0,10.6,76.0,99.0,'11111222,11111222,11144222' 
ADCP,ioos:station:wmo:42364:1,2016-11-05T21:30:00Z,29.0600,-88.0900,122.0,10.6,79.0,99.0,'11111222,11111222,11144222' 
ADCP,ioos:station:wmo:42364:1,2016-11-05T22:30:00Z,29.0600,-88.0900,122.0,10.6,80.0,99.0,'11111222,11111222,11144222' 
ADCP,ioos:station:wmo:42364:1,2016-11-05T23:30:00Z,29.0600,-88.0900,122.0,10.1,78.0,99.0,'11111222,11111222,11144222' 
ADCP,ioos:station:wmo:42364:1,2016-11-06T00:30:00Z,29.0600,-88.0900,122.0,9.6,80.0,99.0,'11111222,11111222,11144222' 
ADCP,ioos:station:wmo:42364:1,2016-11-06T01:30:00Z,29.0600,-88.0900,122.0,9.5,78.0,99.0,'11111222,11111222,11144222' 
ADCP,ioos:station:wmo:42364:1,2016-11-06T02:30:00Z,29.0600,-88.0900,122.0,9.5,78.0,99.0,'11111222,11111222,11144222' 
ADCP,ioos:station:wmo:42364:1,2016-11-06T03:30:00Z,29.0600,-88.0900,122.0,9.5,78.0,99.0,'11111222,11111222,11144222' 
ADCP,ioos:station:wmo:42364:1,2016-11-06T04:30:00Z,29.0600,-88.0900,122.0,9.4,81.0,99.0,'11111222,11111222,11144222' 
ADCP,ioos:station:wmo:42364:1,2016-11-06T05:30:00Z,29.0600,-88.0900,122.0,9.4,81.0,99.0,'11111222,11111222,11144222' 
ADCP,ioos:station:wmo:42364:1,2016-11-06T06:30:00Z,29.0600,-88.0900,122.0,8.8,79.0,99.0,'11111222,11111222,11144222' 
ADCP,ioos:station:wmo:42364:1,2016-11-06T07:30:00Z,29.0600,-88.0900,122.0,9.1,82.0,99.0,'11111222,11111222,11144222' 
ADCP,ioos:station:wmo:42364:1,2016-11-06T08:30:00Z,29.0600,-88.0900,122.0,8.5,76.0,99.0,'11111222,11111222,11144222' 
ADCP,ioos:station:wmo:42364:1,2016-11-06T09:30:00Z,29.0600,-88.0900,122.0,7.2,73.0,99.0,'11111222,11111222,11144222' 
ADCP,ioos:station:wmo:42364:1,2016-11-06T10:30:00Z,29.0600,-88.0900,122.0,7.4,74.0,99.0,'11111222,11111222,11144222' 
ADCP,ioos:station:wmo:42364:1,2016-11-06T11:30:00Z,29.0600,-88.0900,122.0,6.8,74.0,99.0,'11111222,11111222,11144222' 
ADCP,ioos:station:wmo:42364:1,2016-11-06T12:30:00Z,29.0600,-88.0900,122.0,6.0,62.0,99.0,'11111222,11111222,11144222' 
ADCP,ioos:station:wmo:42364:1,2016-11-06T13:30:00Z,29.0600,-88.0900,122.0,7.3,60.0,99.0,'11111222,11111222,11144222' 
ADCP,ioos:station:wmo:42364:1,2016-11-06T14:30:00Z,29.0600,-88.0900,122.0,9.7,64.0,99.0,'11111222,11111222,11144222' 
ADCP,ioos:station:wmo:42364:1,2016-11-06T15:30:00Z,29.0600,-88.0900,122.0,9.9,72.0,99.0,'11111222,11111222,11144222' 
ADCP,ioos:station:wmo:42364:1,2016-11-06T16:30:00Z,29.0600,-88.0900,122.0,8.7,75.0,99.0,'11111222,11111222,11144222' 
ADCP,ioos:station:wmo:42364:1,2016-11-06T17:30:00Z,29.0600,-88.0900,122.0,9.2,76.0,99.0,'11111222,11111222,11144222' 
ADCP,ioos:station:wmo:42364:1,2016-11-06T18:30:00Z,29.0600,-88.0900,122.0,9.3,80.0,99.0,'11111222,11111222,11144222' 
ADCP,ioos:station:wmo:42364:1,2016-11-06T19:30:00Z,29.0600,-88.0900,122.0,9.1,75.0,99.0,'11111222,11111222,11144222' 
ADCP,ioos:station:wmo:42364:1,2016-11-06T20:30:00Z,29.0600,-88.0900,122.0,8.8,80.0,99.0,'11111222,11111222,11144222' 
ADCP,ioos:station:wmo:42364:1,2016-11-06T21:30:00Z,29.0600,-88.0900,122.0,7.8,96.0,99.0,'11111222,11111222,11144222' 
ADCP,ioos:station:wmo:42364:1,2016-11-06T22:30:00Z,29.0600,-88.0900,122.0,8.1,94.0,99.0,'11111222,11111222,11144222' 
ADCP,ioos:station:wmo:42364:1,2016-11-06T23:30:00Z,29.0600,-88.0900,122.0,9.5,84.0,99.0,'11111222,11111222,11144222' 
ADCP,ioos:station:wmo:42364:1,2016-11-07T00:30:00Z,29.0600,-88.0900,122.0,9.1,79.0,99.0,'11111222,11111222,11144222' 
ADCP,ioos:station:wmo:42364:1,2016-11-07T01:30:00Z,29.0600,-88.0900,122.0,7.8,72.0,99.0,'11111222,11111222,11144222' 
ADCP,ioos:station:wmo:42364:1,2016-11-07T02:30:00Z,29.0600,-88.0900,122.0,6.6,62.0,99.0,'11111222,11111222,11144222' 
ADCP,ioos:station:wmo:42364:1,2016-11-07T03:30:00Z,29.0600,-88.0900,122.0,7.1,64.0,99.0,'11111222,11111222,11144222' 
ADCP,ioos:station:wmo:42364:1,2016-11-07T04:30:00Z,29.0600,-88.0900,122.0,7.1,60.0,99.0,'11111222,11111222,11144222' 
ADCP,ioos:station:wmo:42364:1,2016-11-07T05:30:00Z,29.0600,-88.0900,122.0,8.1,72.0,99.0,'11111222,11111222,11144222' 
ADCP,ioos:station:wmo:42364:1,2016-11-07T06:30:00Z,29.0600,-88.0900,122.0,8.7,99.0,99.0,'11111222,11111222,11144222' 
ADCP,ioos:station:wmo:42364:1,2016-11-07T07:30:00Z,29.0600,-88.0900,122.0,9.4,107.0,99.0,'11111222,11111222,11144222' 
ADCP,ioos:station:wmo:42364:1,2016-11-07T08:30:00Z,29.0600,-88.0900,122.0,10.2,103.0,99.0,'11111222,11111222,11144222' 
ADCP,ioos:station:wmo:42364:1,2016-11-07T09:30:00Z,29.0600,-88.0900,122.0,9.9,104.0,99.0,'11111222,11111222,11144222' 
ADCP,ioos:station:wmo:42364:1,2016-11-07T11:30:00Z,29.0600,-88.0900,122.0,10.1,102.0,99.0,'11111222,11111222,11144222' 
ADCP,ioos:station:wmo:42364:1,2016-11-07T12:30:00Z,29.0600,-88.0900,122.0,10.4,105.0,99.0,'11111222,11111222,11144222' 
ADCP,ioos:station:wmo:42364:1,2016-11-07T13:30:00Z,29.0600,-88.0900,122.0,10.1,106.0,99.0,'11111222,11111222,11144222' 
ADCP,ioos:station:wmo:42364:1,2016-11-07T14:30:00Z,29.0600,-88.0900,122.0,10.6,106.0,99.0,'11111222,11111222,11144222' 
ADCP,ioos:station:wmo:42364:1,2016-11-07T15:30:00Z,29.0600,-88.0900,122.0,10.3,108.0,99.0,'11111222,11111222,11144222' 
ADCP,ioos:station:wmo:42364:1,2016-11-07T16:30:00Z,29.0600,-88.0900,122.0,9.9,112.0,99.0,'11111222,11111222,11144222' 
ADCP,ioos:station:wmo:42364:1,2016-11-07T17:30:00Z,29.0600,-88.0900,122.0,11.4,102.0,99.0,'11111222,11111222,11144222' 
ADCP,ioos:station:wmo:42364:1,2016-11-07T18:30:00Z,29.0600,-88.0900,122.0,10.8,108.0,99.0,'11111222,11111222,11144222' 
ADCP,ioos:station:wmo:42364:1,2016-11-07T19:30:00Z,29.0600,-88.0900,122.0,11.0,105.0,99.0,'11111222,11111222,11144222' 
ADCP,ioos:station:wmo:42364:1,2016-11-07T20:30:00Z,29.0600,-88.0900,122.0,12.0,103.0,99.0,'11111222,11111222,11144222' 
ADCP,ioos:station:wmo:42364:1,2016-11-07T21:30:00Z,29.0600,-88.0900,122.0,10.6,121.0,99.0,'11111222,11111222,11144222' 
ADCP,ioos:station:wmo:42364:1,2016-11-07T22:30:00Z,29.0600,-88.0900,122.0,9.5,99.0,99.0,'11111222,11111222,11144222' 
ADCP,ioos:station:wmo:42364:1,2016-11-07T23:30:00Z,29.0600,-88.0900,122.0,11.7,100.0,99.0,'11111222,11111222,11144222' 
ADCP,ioos:station:wmo:42364:1,2016-11-08T00:30:00Z,29.0600,-88.0900,122.0,11.7,110.0,99.0,'11111222,11111222,11144222' 
ADCP,ioos:station:wmo:42364:1,2016-11-08T01:30:00Z,29.0600,-88.0900,122.0,12.5,100.0,99.0,'11111222,11111222,11144222' 
ADCP,ioos:station:wmo:42364:1,2016-11-08T02:30:00Z,29.0600,-88.0900,122.0,12.6,111.0,99.0,'11111222,11111222,11144222' 
ADCP,ioos:station:wmo:42364:1,2016-11-08T03:30:00Z,29.0600,-88.0900,122.0,12.3,111.0,99.0,'11111222,11111222,11144222' 
ADCP,ioos:station:wmo:42364:1,2016-11-08T04:30:00Z,29.0600,-88.0900,122.0,11.7,115.0,99.0,'11111222,11111222,11144222' 
ADCP,ioos:station:wmo:42364:1,2016-11-08T05:30:00Z,29.0600,-88.0900,122.0,11.5,116.0,99.0,'11111222,11111222,11144222' 
ADCP,ioos:station:wmo:42364:1,2016-11-08T06:30:00Z,29.0600,-88.0900,122.0,11.2,119.0,99.0,'11111222,11111222,11144222' 
ADCP,ioos:station:wmo:42364:1,2016-11-08T07:30:00Z,29.0600,-88.0900,122.0,10.0,118.0,99.0,'11111222,11111222,11144222' 
ADCP,ioos:station:wmo:42364:1,2016-11-08T08:30:00Z,29.0600,-88.0900,122.0,9.8,112.0,99.0,'11111222,11111222,11144222' 
ADCP,ioos:station:wmo:42364:1,2016-11-08T09:30:00Z,29.0600,-88.0900,122.0,9.8,119.0,99.0,'11111222,11111222,11144222' 
ADCP,ioos:station:wmo:42364:1,2016-11-08T10:30:00Z,29.0600,-88.0900,122.0,8.1,128.0,99.0,'11111222,11111222,11144222' 
ADCP,ioos:station:wmo:42364:1,2016-11-08T11:30:00Z,29.0600,-88.0900,122.0,5.9,137.0,99.0,'11111222,11111222,11144222' 
ADCP,ioos:station:wmo:42364:1,2016-11-08T12:30:00Z,29.0600,-88.0900,122.0,7.4,109.0,99.0,'11111222,11111222,11144222' 
ADCP,ioos:station:wmo:42364:1,2016-11-08T13:30:00Z,29.0600,-88.0900,122.0,8.5,91.0,99.0,'11111222,11111222,11144222' 
ADCP,ioos:station:wmo:42364:1,2016-11-08T14:30:00Z,29.0600,-88.0900,122.0,11.0,86.0,99.0,'11111222,11111222,11144222' 
ADCP,ioos:station:wmo:42364:1,2016-11-08T15:30:00Z,29.0600,-88.0900,122.0,10.2,87.0,99.0,'11111222,11111222,11144222' 
ADCP,ioos:station:wmo:42364:1,2016-11-08T16:30:00Z,29.0600,-88.0900,122.0,8.9,87.0,99.0,'11111222,11111222,11144222' 
ADCP,ioos:station:wmo:42364:1,2016-11-08T17:30:00Z,29.0600,-88.0900,122.0,9.3,145.0,99.0,'11111222,11111222,11144222' 
ADCP,ioos:station:wmo:42364:1,2016-11-08T18:30:00Z,29.0600,-88.0900,122.0,6.2,137.0,99.0,'11111222,11111222,11144222' 
ADCP,ioos:station:wmo:42364:1,2016-11-08T19:30:00Z,29.0600,-88.0900,122.0,9.1,133.0,99.0,'11111222,11111222,11144222' 
ADCP,ioos:station:wmo:42364:1,2016-11-08T20:30:00Z,29.0600,-88.0900,122.0,11.1,137.0,99.0,'11111222,11111222,11144222' 
ADCP,ioos:station:wmo:42364:1,2016-11-08T21:30:00Z,29.0600,-88.0900,122.0,11.4,137.0,99.0,'11111222,11111222,11144222' 
ADCP,ioos:station:wmo:42364:1,2016-11-08T22:30:00Z,29.0600,-88.0900,122.0,9.2,115.0,99.0,'11111222,11111222,11144222' 
ADCP,ioos:station:wmo:42364:1,2016-11-08T23:30:00Z,29.0600,-88.0900,122.0,9.4,122.0,99.0,'11111222,11111222,11144222' 
ADCP,ioos:station:wmo:42364:1,2016-11-09T00:30:00Z,29.0600,-88.0900,122.0,10.8,126.0,99.0,'11111222,11111222,11144222' 
ADCP,ioos:station:wmo:42364:1,2016-11-09T01:30:00Z,29.0600,-88.0900,122.0,9.2,111.0,99.0,'11111222,11111222,11144222' 
ADCP,ioos:station:wmo:42364:1,2016-11-09T03:30:00Z,29.0600,-88.0900,122.0,10.6,82.0,99.0,'11111222,11111222,11144222' 
ADCP,ioos:station:wmo:42364:1,2016-11-09T04:30:00Z,29.0600,-88.0900,122.0,14.2,146.0,99.0,'11111222,11111222,11144222' 
ADCP,ioos:station:wmo:42364:1,2016-11-09T05:30:00Z,29.0600,-88.0900,122.0,9.1,91.0,99.0,'11111222,11111222,11144222' 
ADCP,ioos:station:wmo:42364:1,2016-11-09T06:30:00Z,29.0600,-88.0900,122.0,8.2,98.0,99.0,'11111222,11111222,11144222' 
ADCP,ioos:station:wmo:42364:1,2016-11-09T07:30:00Z,29.0600,-88.0900,122.0,8.0,115.0,99.0,'11111222,11111222,11144222' 
ADCP,ioos:station:wmo:42364:1,2016-11-09T08:30:00Z,29.0600,-88.0900,122.0,6.2,125.0,99.0,'11111222,11111222,11144222' 
ADCP,ioos:station:wmo:42364:1,2016-11-09T09:30:00Z,29.0600,-88.0900,122.0,7.3,116.0,99.0,'11111222,11111222,11144222' 
ADCP,ioos:station:wmo:42364:1,2016-11-09T10:30:00Z,29.0600,-88.0900,122.0,8.3,96.0,99.0,'11111222,11111222,11144222' 
ADCP,ioos:station:wmo:42364:1,2016-11-09T11:30:00Z,29.0600,-88.0900,122.0,9.1,89.0,99.0,'11111222,11111222,11144222' 
ADCP,ioos:station:wmo:42364:1,2016-11-09T12:30:00Z,29.0600,-88.0900,122.0,12.7,74.0,99.0,'11111222,11111222,11144222' 
ADCP,ioos:station:wmo:42364:1,2016-11-09T13:30:00Z,29.0600,-88.0900,122.0,12.0,71.0,99.0,'11111222,11111222,11144222' 